STARLINK-33743, 63440

Orbit data source: Space-Track

STARLINK-33743, 63440 is a payload satellite owned by SpaceX/Seattle (US) in LEO that was launched on Fri, 04 Apr 2025 UTC via an FALCON 9 launch vehicle from the Air Force Western Test Range (AFWTR). Payload-class satellites include a variety of spacecraft equipped with specific instruments for various scientific and technological missions. These include communications satellites like Starlink; space stations such as the ISS; scientific satellites like the Hubble; Earth observation satellites from companies like Planet Labs, Umbra, and HawkEye 360; GPS; miniature CubeSats for education and research; and military/defense satellites.

Loading next visibility...
Identifier
63440, 2025-069H
Orbit
LEO
Country
Flag of USUS
Related business
Manufacturer
SpaceX/Seattle
Mission
Operational Commercial Communications
Bus & Motor
STARLINK V2MO, Unknown motor
Mass
575 kg wet, ~530 kg dry
Launch date (UTC)
2025-04-04 (1 year ago)
Launch vehicle
FALCON 9
Launch site
Air Force Western Test Range (AFWTR)
Object type
Payload
Rocket body
Debris
Shape & HBR
Box + 2 Pan, 17.7 m
Radar Cross Section
36.964 m², Large (>1 m²)

Expand to show TLE details & history
Last TLE update: 13 hours ago

TLE from 13 hours ago
0 STARLINK-33743
1 63440U 25069H   26145.26078152  .00022788  00000-0  53133-3 0  9993
2 63440  53.1583 144.2856 0000965  82.2383 277.8732 15.42171730 65053
Epoch: 2026-05-25T06:15Z
TLE epoch observation values (Epoch: 2026-05-25T06:15:31.523Z)
Latitude
-0.00005°
Longitude
167.5531°
Altitude
440.515 km
Speed
7.649 km/s
True Right ascension
09h 37m 08s
True Declination
0° 00' 00"
Sunlit
Object was in daylight at epoch
Visualization orbit readout
Latitude
Unknown
Longitude
Unknown
Altitude
Unknown
Speed
Unknown
Apparent Right ascension
Unknown
Apparent Declination
Unknown
Sunlit
N/A
Visualization observer readout
Local Sidereal Time
04:52:55
Azimuth
Unknown
Elevation
Unknown
Doppler factor
Unknown
Orbital elements
Apogee altitude
440.617 km
Perigee altitude
439.301 km
Semi-major axis
6,818.096 km
Eccentricity
0.0001
Inclination
53.1583°
RAAN
144.2856°
Arg. of periapsis
82.2383°
True anomaly
277.86225°
Mean anomaly
277.8732°
Eccentric anomaly
277.86772°
Mean motion
3.85521 °/min
Orbital period
93.38 mins
BSTAR
0.00053133
Loading maneuver chart data...
Computing Atmospheric mass density...
Loading historical data...
Loading historical data...
Loading historical data...
Loading historical data...
Loading historical data...
Loading historical data...
Loading historical data...

Documentation

Showing up to 5 results
|